Wind_Speed
33 35 35 33 35 37 38 40 44 49 52 54 50 49 40 37 43 46 49 49 49 46 44 42 42 38 36 34 38 36 36 37 32 31 29 27 25 25 26 29 29 29 29 29
35 36 32 34 37 37 37 40 44 42 46 33 34 45 47 36 38 42 45 46 49 47 50 47 42 40 36 33 38 36 35 34 33 32 29 28 25 26 26 29 31 31 31 31
32 30 32 33 34 36 38 40 39 40 37 30 26 29 36 42 52 40 44 48 46 45 44 40 43 40 35 31 34 36 35 35 34 33 31 30 28 28 28 29 31 33 33 34
28 26 31 35 36 32 38 38 36 39 38 42 34 37 30 30 40 43 38 46 48 46 48 39 43 44 32 30 36 38 37 37 37 35 34 34 32 32 32 31 33 34 34 35
24 27 27 30 30 23 37 34 35 39 42 46 48 46 40 37 44 36 33 45 50 50 50 44 41 39 35 31 35 39 39 39 39 38 37 37 36 36 35 34 34 36 36 37
29 29 30 29 34 29 35 35 41 43 43 40 44 49 48 55 52 47 38 41 44 45 43 45 46 42 40 34 34 37 40 41 41 40 39 39 39 39 38 37 38 39 39 39
27 28 30 33 30 30 34 40 39 39 39 46 42 46 50 49 50 42 29 29 40 39 34 39 45 46 43 36 36 38 40 40 42 42 41 39 41 42 41 40 40 40 41 41
26 31 29 27 39 36 38 41 34 42 43 44 44 44 44 41 45 40 36 32 33 34 34 36 43 46 47 42 37 36 38 37 40 42 45 42 43 42 41 41 41 42 43 43
34 36 25 31 33 39 38 34 34 36 36 42 40 37 41 26 20 30 42 41 36 38 42 46 48 39 36 41 41 39 39 41 41 41 45 45 42 42 43 43 44 45 45 46
41 44 35 32 33 30 33 28 35 36 39 37 41 38 37 26 22 33 41 45 42 42 48 51 52 49 47 45 45 44 43 43 41 36 43 44 44 44 45 45 46 47 48 47
51 49 43 40 35 36 39 35 43 42 36 37 38 36 28 30 18 34 37 41 45 48 51 51 52 52 49 52 46 45 46 44 41 41 46 45 45 45 45 46 46 45 46 47
54 53 54 45 41 46 47 37 37 43 46 45 40 40 36 40 34 37 34 42 52 55 54 55 55 54 51 56 51 48 46 44 43 45 45 42 42 42 42 43 43 44 44 45
60 61 61 56 48 46 51 54 45 39 48 56 47 37 33 40 40 36 35 45 39 49 48 48 48 49 50 41 37 40 42 45 45 42 41 42 41 40 40 42 42 40 40 41
69 69 68 68 63 60 60 58 59 56 50 38 44 39 34 35 36 37 36 37 39 41 45 41 42 37 34 33 32 37 40 42 43 43 43 42 40 39 38 37 37 40 41 43
69 72 75 76 75 69 67 63 69 69 62 55 51 49 42 49 42 38 39 38 45 47 43 43 43 49 49 39 41 40 38 36 35 36 36 36 35 36 38 39 40 41 40 41
63 70 74 75 76 79 76 71 65 68 72 72 63 54 49 57 64 58 56 50 44 46 44 39 38 40 36 40 38 44 40 37 37 36 37 37 38 40 40 40 38 38 40 42
55 67 72 77 73 78 83 73 74 70 67 74 75 62 52 51 65 63 65 63 60 51 47 45 51 42 43 41 42 27 44 36 34 35 38 38 40 38 39 37 38 41 43 45
17 43 66 73 72 76 77 75 77 78 72 68 74 74 72 67 57 62 50 74 65 52 58 51 50 47 45 50 45 17 11 21 28 32 35 34 36 39 38 40 44 44 47 50
16 14 25 50 73 77 73 72 72 70 77 77 74 73 75 73 65 58 71 50 59 62 71 64 71 72 66 35 42 33 27 28 31 37 38 37 40 45 44 46 48 49 51 54
16 17 22 28 32 48 63 64 63 63 78 69 68 81 80 71 79 73 65 68 65 53 45 43 40 46 47 50 48 42 42 38 43 46 45 40 45 46 48 50 51 51 54 57
22 20 22 21 32 36 21 28 38 57 68 75 77 75 83 85 81 78 88 72 81 81 75 73 69 64 48 46 42 51 56 54 55 52 44 44 46 48 50 51 52 55 57 57
25 26 27 28 28 26 32 30 36 39 41 57 63 71 77 83 94 88 77 79 84 80 76 71 69 67 66 67 63 62 63 61 55 47 45 47 49 50 51 52 53 54 55 58
39 37 36 32 29 25 26 29 36 43 40 42 43 51 67 76 82 89 94 85 80 79 82 78 77 75 73 72 69 69 63 59 55 52 50 49 51 51 51 51 50 52 57 60
27 30 38 42 34 35 31 28 26 34 41 35 41 48 52 58 65 77 81 91 94 93 81 73 76 76 77 75 69 67 63 59 57 54 52 51 50 50 49 49 52 55 59 61
20 27 32 39 34 39 31 30 28 31 34 44 40 42 50 47 53 58 67 81 87 84 84 89 85 81 76 71 64 60 57 55 52 50 50 48 47 47 48 49 53 55 56 57
31 32 33 28 24 34 20 26 29 28 28 24 45 49 38 49 45 50 52 54 62 71 74 82 79 73 65 61 60 56 50 48 47 45 43 43 43 44 48 51 52 51 50 49
Wind_Direction
233 235 232 234 235 235 235 234 236 237 236 249 247 242 236 227 232 240 248 255 255 254 260 259 258 257 259 262 263 262 261 263 259 259 264 269 276 282 285 284 285 286 287 289
234 234 234 233 234 236 237 236 237 237 235 231 252 257 256 237 231 240 246 252 256 258 257 259 260 257 257 254 257 258 256 252 250 254 260 267 276 281 284 284 284 284 285 286
241 235 229 232 234 238 239 237 236 241 239 218 234 242 247 238 237 234 249 247 249 255 257 258 259 261 256 248 252 252 249 246 248 253 260 267 274 279 283 286 286 287 287 287
244 235 234 227 227 232 233 237 237 241 233 218 222 233 223 233 245 254 237 248 252 254 261 258 255 255 248 242 243 247 243 243 248 254 261 267 272 278 281 283 284 284 286 289
243 237 227 230 224 230 242 231 225 231 242 228 218 226 220 229 242 247 243 245 246 247 257 271 264 257 248 239 242 245 243 245 250 255 263 270 274 277 280 283 284 284 284 283
246 238 229 222 212 229 244 244 233 232 239 238 233 231 242 225 241 246 250 243 244 255 258 259 261 258 252 242 242 245 246 249 254 259 266 273 276 279 282 285 284 285 286 288
253 247 245 235 216 224 236 244 244 236 229 239 238 227 240 239 243 247 236 233 235 243 254 253 258 257 255 248 241 241 247 253 260 264 266 272 277 280 284 284 285 285 286 287
259 243 241 232 222 225 230 239 244 239 238 246 237 238 237 248 250 248 227 229 236 243 252 256 251 254 254 251 248 244 245 253 263 270 271 271 276 280 280 280 281 283 284 286
258 250 240 235 220 238 250 241 244 247 249 250 249 244 239 239 239 233 227 233 230 236 234 239 259 257 259 255 253 250 248 249 253 260 268 273 274 274 276 279 281 283 284 285
240 249 242 233 214 214 239 239 227 236 243 241 244 242 245 225 252 247 225 233 229 236 245 252 261 267 266 258 255 254 254 255 257 261 266 270 271 274 276 279 280 282 284 286
242 246 242 239 217 218 230 239 224 232 238 240 241 233 216 214 214 230 238 231 239 240 242 248 255 261 261 263 259 257 260 264 266 265 265 267 270 273 275 277 279 280 282 285
250 253 254 243 233 222 229 237 222 226 228 237 244 247 215 213 241 226 224 227 230 230 233 238 245 250 252 260 267 266 263 262 260 259 264 266 268 270 273 274 276 280 284 286
245 247 254 251 240 229 228 229 227 233 223 217 232 243 229 228 239 245 239 243 240 236 234 242 243 245 248 252 256 256 256 256 260 261 263 266 268 270 270 273 278 280 281 284
248 242 246 250 245 236 225 226 230 232 234 234 224 234 208 216 229 239 234 234 222 227 232 229 241 231 235 249 264 256 253 253 255 259 262 264 266 269 271 274 276 280 285 289
249 247 246 243 245 243 242 232 228 232 230 236 226 230 217 217 213 234 228 233 232 235 227 232 228 238 241 253 259 253 250 250 252 254 256 260 264 268 271 274 278 283 286 288
249 249 247 242 244 244 240 238 238 233 232 234 231 221 219 222 224 222 242 240 230 239 246 240 239 235 262 263 238 235 239 242 247 252 257 259 261 264 269 275 279 284 288 292
244 243 245 246 244 243 241 238 238 236 232 234 233 227 220 235 227 229 233 234 239 238 229 222 241 227 260 258 251 250 227 235 248 253 257 261 265 268 271 277 284 286 289 290
295 246 242 243 243 245 239 239 238 238 237 233 235 234 234 229 228 230 234 233 231 235 243 235 226 222 262 267 231 224 250 260 262 266 268 266 269 273 277 282 283 287 288 291
316 309 255 250 246 245 242 241 241 241 235 233 231 232 229 229 221 231 232 225 224 228 236 236 238 243 256 231 203 221 266 276 288 281 275 273 274 275 278 282 286 288 289 290
302 280 274 278 266 258 250 244 243 246 242 231 233 229 232 226 224 222 230 231 231 228 221 225 231 229 241 242 259 269 270 284 283 275 274 277 276 278 280 282 284 286 288 291
277 284 285 289 265 256 247 243 235 249 251 238 236 230 227 231 235 226 225 230 232 236 237 240 246 250 250 256 260 268 277 279 273 274 277 276 277 279 281 283 285 287 289 292
270 274 278 280 276 271 253 247 249 243 242 242 242 236 231 231 235 234 234 226 231 236 238 242 247 246 253 254 258 265 267 266 268 269 269 270 272 274 277 281 284 287 289 290
282 277 271 264 263 268 259 257 254 253 244 238 236 234 234 234 232 234 233 231 234 230 232 238 242 247 247 248 251 253 256 259 264 265 266 267 271 274 277 281 284 285 286 288
295 278 267 259 257 261 255 254 248 251 243 233 237 227 231 234 236 235 235 239 242 245 240 237 242 244 247 253 254 255 255 257 258 262 264 267 270 273 276 279 282 284 287 291
306 289 279 266 263 258 257 260 254 258 255 246 235 234 227 231 232 234 235 238 237 241 244 245 245 247 251 251 248 248 249 251 253 256 261 266 269 272 277 280 284 286 289 293
295 304 288 284 265 260 268 266 256 254 254 260 242 234 234 230 220 227 236 239 239 241 244 244 246 246 246 250 251 250 252 252 254 258 261 265 270 276 279 280 281 287 294 291
Height
5791 5793 5798 5804 5806 5810 5813 5814 5818 5825 5833 5826 5829 5835 5842 5849 5850 5852 5854 5856 5860 5863 5864 5868 5874 5880 5884 5887 5886 5889 5890 5890 5892 5894 5895 5896 5897 5897 5897 5897 5898 5897 5898 5898
5782 5785 5793 5795 5798 5801 5804 5807 5811 5818 5821 5820 5822 5826 5833 5835 5841 5845 5847 5849 5851 5855 5856 5860 5865 5871 5876 5878 5876 5879 5880 5882 5885 5888 5890 5890 5891 5891 5893 5892 5891 5891 5891 5891
5774 5782 5783 5787 5790 5793 5796 5799 5804 5807 5813 5811 5814 5817 5820 5822 5826 5836 5839 5839 5841 5842 5846 5850 5854 5862 5866 5869 5868 5869 5871 5874 5878 5881 5882 5883 5884 5885 5887 5886 5884 5884 5885 5884
5767 5772 5774 5776 5780 5785 5787 5794 5794 5796 5800 5803 5808 5805 5812 5817 5820 5822 5829 5830 5831 5832 5835 5842 5846 5852 5859 5861 5860 5861 5865 5868 5870 5873 5875 5875 5878 5879 5880 5880 5878 5878 5878 5877
5764 5763 5766 5768 5772 5777 5778 5782 5784 5786 5787 5794 5797 5797 5806 5809 5810 5818 5823 5823 5822 5824 5827 5830 5836 5842 5848 5852 5852 5854 5858 5859 5861 5865 5867 5868 5869 5871 5871 5871 5870 5870 5870 5869
5752 5754 5755 5759 5765 5769 5772 5772 5775 5776 5779 5779 5788 5795 5796 5798 5803 5809 5814 5817 5821 5822 5823 5823 5826 5830 5835 5842 5844 5847 5850 5851 5852 5856 5858 5858 5859 5860 5861 5862 5862 5862 5861 5859
5743 5746 5750 5752 5754 5759 5762 5762 5764 5767 5767 5771 5784 5781 5784 5793 5796 5801 5803 5806 5811 5812 5814 5815 5817 5819 5824 5831 5835 5839 5842 5844 5843 5846 5848 5849 5849 5850 5851 5852 5852 5852 5851 5850
5731 5734 5740 5747 5746 5749 5751 5754 5756 5756 5758 5764 5768 5766 5781 5787 5788 5792 5792 5795 5801 5804 5805 5806 5806 5808 5811 5820 5827 5831 5835 5837 5835 5834 5835 5841 5840 5841 5842 5843 5843 5842 5842 5841
5720 5722 5730 5734 5739 5745 5745 5746 5749 5750 5753 5753 5757 5763 5771 5776 5777 5779 5782 5786 5788 5791 5793 5792 5793 5802 5802 5808 5818 5823 5825 5828 5829 5828 5826 5829 5832 5832 5832 5833 5833 5832 5831 5831
5707 5709 5718 5723 5726 5730 5733 5738 5740 5738 5739 5741 5747 5753 5761 5765 5765 5768 5773 5775 5779 5782 5784 5785 5785 5788 5791 5796 5804 5810 5814 5817 5819 5820 5818 5819 5821 5822 5822 5823 5823 5821 5820 5819
5695 5698 5706 5710 5718 5722 5722 5724 5726 5729 5731 5731 5736 5744 5757 5756 5758 5761 5762 5768 5772 5775 5777 5779 5780 5781 5777 5783 5791 5798 5802 5805 5807 5807 5808 5811 5811 5811 5812 5812 5811 5811 5809 5808
5684 5687 5688 5700 5708 5711 5711 5713 5708 5713 5720 5723 5729 5736 5746 5745 5745 5750 5749 5749 5755 5761 5765 5768 5770 5771 5773 5774 5786 5789 5791 5793 5794 5796 5798 5800 5801 5802 5802 5801 5800 5800 5799 5797
5674 5671 5673 5681 5692 5700 5698 5699 5696 5697 5700 5704 5715 5725 5742 5741 5739 5740 5739 5732 5742 5744 5747 5755 5764 5767 5764 5767 5773 5778 5781 5782 5783 5786 5788 5789 5790 5791 5791 5790 5791 5790 5788 5787
5653 5657 5656 5660 5668 5673 5679 5683 5685 5688 5692 5699 5702 5713 5729 5728 5729 5729 5728 5726 5724 5727 5725 5737 5747 5750 5749 5756 5760 5765 5768 5772 5775 5776 5777 5778 5779 5779 5780 5781 5780 5779 5778 5776
5627 5634 5636 5639 5644 5654 5661 5670 5670 5672 5683 5683 5699 5700 5712 5707 5709 5705 5714 5715 5719 5716 5718 5722 5731 5733 5736 5744 5748 5751 5756 5761 5765 5768 5770 5770 5771 5771 5771 5771 5770 5769 5767 5765
5605 5605 5608 5617 5626 5630 5636 5647 5657 5663 5665 5666 5676 5686 5693 5692 5694 5693 5695 5699 5700 5705 5713 5712 5715 5721 5727 5730 5736 5741 5744 5749 5752 5756 5759 5761 5762 5762 5762 5761 5760 5759 5756 5754
5581 5581 5586 5590 5602 5601 5607 5637 5636 5641 5647 5654 5660 5680 5682 5678 5680 5682 5685 5686 5690 5700 5704 5703 5704 5709 5715 5718 5720 5722 5731 5740 5746 5748 5750 5751 5751 5752 5750 5750 5749 5746 5744 5741
5566 5566 5567 5568 5577 5570 5600 5606 5614 5622 5633 5642 5649 5658 5661 5665 5663 5666 5668 5670 5676 5685 5690 5701 5704 5701 5706 5710 5712 5716 5722 5727 5731 5734 5737 5740 5741 5740 5740 5739 5736 5735 5732 5729
5561 5560 5557 5555 5557 5559 5571 5586 5596 5602 5612 5619 5626 5635 5650 5652 5652 5645 5652 5653 5666 5673 5680 5689 5691 5697 5702 5702 5698 5705 5712 5716 5717 5722 5727 5731 5730 5729 5728 5726 5725 5722 5720 5716
5557 5554 5554 5551 5547 5545 5559 5570 5577 5575 5567 5598 5601 5611 5621 5632 5633 5626 5625 5640 5654 5660 5666 5676 5681 5687 5691 5693 5694 5697 5701 5703 5710 5716 5719 5721 5719 5717 5717 5715 5713 5710 5706 5702
5553 5549 5546 5544 5540 5539 5549 5551 5551 5551 5564 5578 5577 5591 5604 5607 5603 5606 5615 5626 5638 5644 5655 5665 5671 5676 5679 5684 5686 5687 5690 5695 5703 5708 5709 5708 5706 5705 5703 5702 5699 5697 5693 5688
5544 5542 5540 5537 5534 5534 5536 5537 5537 5541 5545 5549 5556 5572 5579 5585 5584 5595 5600 5612 5622 5632 5644 5653 5659 5667 5672 5679 5679 5679 5680 5688 5694 5696 5696 5696 5695 5693 5692 5690 5686 5683 5678 5673
5535 5535 5530 5528 5527 5526 5526 5526 5527 5528 5535 5539 5540 5549 5555 5562 5571 5583 5592 5599 5601 5610 5623 5631 5641 5652 5658 5663 5665 5668 5674 5679 5681 5682 5683 5683 5682 5680 5678 5676 5673 5669 5664 5659
5526 5521 5514 5511 5517 5515 5516 5517 5516 5516 5523 5526 5526 5536 5537 5545 5558 5568 5574 5575 5585 5592 5604 5613 5625 5635 5642 5647 5652 5656 5661 5665 5667 5669 5670 5670 5669 5668 5666 5664 5661 5656 5651 5645
5515 5508 5503 5497 5505 5501 5506 5506 5507 5508 5509 5514 5518 5521 5527 5534 5541 5548 5554 5560 5573 5579 5587 5595 5609 5619 5625 5630 5638 5643 5649 5652 5654 5656 5657 5657 5657 5656 5655 5652 5647 5643 5637 5631
5503 5499 5493 5493 5493 5489 5498 5496 5495 5497 5499 5504 5506 5511 5516 5522 5529 5536 5542 5550 5559 5562 5567 5581 5594 5600 5607 5612 5621 5630 5634 5636 5640 5643 5645 5645 5645 5644 5642 5639 5636 5631 5627 5620